Retour au catalogue

THOR ABLESTAR DEB

ActifLEO
NORAD 177·DEBRIS·🇺🇸 United States

Lancé Jun 29, 1961 depuis Cape Canaveral Space Force Station

Loading…

Prochains Passages (prochaines 24 heures)

TLE

FraisSource: Space-Track

Époque: Sep 14, 2026, 14:41 UTC

1 00177U 61015BB  26257.61184457  .00000340  00000-0  20766-3 0  9997
2 00177  66.6553 334.3499 0103978  25.4094 335.2056 14.14892938353818

Suivez THOR ABLESTAR DEB en temps réel avec AllMySat

Download on the App Store